Terminal Aerodrome Forecast
Issued by NWS

Current Version | Previous Version | Graphics & Text | Print | Product List | Glossary On
Versions: 1 2 3 4 5 6 7 8 9 10 11 12 13 14 15 16 17 18 19 20 21 22 23 24 25 26 27
000
FTUS41 KRLX 290800 AAA
TAFCKB
TAF AMD
KCKB 290833Z 2909/3006 04004KT 6SM BR SKC
     FM291000 00000KT 1 1/2SM BR SCT001
      TEMPO 2910/2912 1/2SM FG VV001
     FM291230 00000KT 4SM BR SCT002 SCT200
     FM291300 00000KT P6SM FEW250=

USA.gov is the U.S. government's official web portal to all federal, state and local government web resources and services.